• In Romania
  • List of Countries
  • For 7 days
  • Water Temperature
  • Satellite Maps
  • Weather Map
  • Weather Widgets
  • user-avatar
    Login

    Hourly Weather Lankaran

    Today, 21 November, Tuesday

    Time Temperature Precipitation Wind Pressure Humidity
    00:00 +8°C° 0.1 mm 2 mps 631 mmHg 48%
    01:00 +8°C° 0 mm 3 mps 631 mmHg 50%
    02:00 +8°C° 0 mm 3 mps 631 mmHg 52%
    03:00 +8°C° 0 mm 3 mps 630 mmHg 55%
    04:00 +8°C° 0.1 mm 3 mps 630 mmHg 57%
    05:00 +8°C° 0.1 mm 3 mps 630 mmHg 60%
    06:00 +8°C° 0.1 mm 3 mps 630 mmHg 63%
    07:00 +8°C° 0.1 mm 3 mps 630 mmHg 61%
    08:00 +9°C° 0.1 mm 3 mps 630 mmHg 58%
    09:00 +11°C° 0 mm 4 mps 630 mmHg 54%
    10:00 +12°C° 0 mm 4 mps 630 mmHg 49%
    11:00 +13°C° 0 mm 5 mps 630 mmHg 45%
    12:00 +14°C° 0 mm 5 mps 630 mmHg 41%
    13:00 +13°C° 0 mm 5 mps 630 mmHg 43%
    14:00 +13°C° 0 mm 5 mps 629 mmHg 44%
    15:00 +12°C° 0 mm 4 mps 629 mmHg 47%
    16:00 +11°C° 0 mm 4 mps 628 mmHg 50%
    17:00 +10°C° 0 mm 4 mps 628 mmHg 52%
    18:00 +9°C° 0 mm 3 mps 628 mmHg 55%
    19:00 +9°C° 0 mm 3 mps 628 mmHg 56%
    20:00 +9°C° 0 mm 3 mps 627 mmHg 57%
    21:00 +9°C° 0 mm 3 mps 627 mmHg 58%
    22:00 +9°C° 0.2 mm 3 mps 627 mmHg 59%
    23:00 +8°C° 0.2 mm 3 mps 627 mmHg 60%

    Tomorrow, 22 November, Wednesday

    Time Temperature Precipitation Wind Pressure Humidity
    00:00 +7°C° 0.2 mm 4 mps 626 mmHg 60%
    01:00 +8°C° 0.1 mm 3 mps 626 mmHg 61%
    02:00 +8°C° 0.1 mm 3 mps 626 mmHg 62%
    03:00 +8°C° 0.1 mm 3 mps 626 mmHg 63%
    04:00 +8°C° 0.1 mm 3 mps 626 mmHg 64%
    05:00 +8°C° 0.1 mm 3 mps 626 mmHg 65%
    06:00 +7°C° 0.1 mm 3 mps 626 mmHg 65%
    07:00 +7°C° 0 mm 4 mps 626 mmHg 63%
    08:00 +8°C° 0 mm 4 mps 626 mmHg 60%
    09:00 +9°C° 0 mm 5 mps 627 mmHg 57%
    10:00 +9°C° 0 mm 5 mps 627 mmHg 54%
    11:00 +10°C° 0 mm 6 mps 627 mmHg 52%
    12:00 +10°C° 0 mm 6 mps 627 mmHg 49%
    13:00 +9°C° 0.1 mm 6 mps 627 mmHg 53%
    14:00 +9°C° 0.1 mm 5 mps 627 mmHg 58%
    15:00 +8°C° 0.1 mm 5 mps 627 mmHg 62%
    16:00 +7°C° 0.7 mm 5 mps 627 mmHg 69%
    17:00 +6°C° 0.7 mm 5 mps 628 mmHg 76%
    18:00 +5°C° 0.7 mm 5 mps 628 mmHg 82%
    19:00 +3°C° 0.8 mm 5 mps 628 mmHg 83%
    20:00 +2°C° 0.8 mm 5 mps 628 mmHg 84%
    21:00 +2°C° 0.8 mm 5 mps 628 mmHg 84%
    22:00 +1°C° 0.5 mm 4 mps 628 mmHg 85%
    23:00 +1°C° 0.5 mm 4 mps 628 mmHg 86%

    Day after tomorrow, 23 November, Thursday

    Time Temperature Precipitation Wind Pressure Humidity
    00:00 +1°C° 0.5 mm 4 mps 628 mmHg 86%
    01:00 +1°C° 0.3 mm 4 mps 628 mmHg 87%
    02:00 0°C° 0.3 mm 4 mps 629 mmHg 87%
    03:00 0°C° 0.3 mm 4 mps 629 mmHg 87%
    04:00 0°C° 0.5 mm 4 mps 629 mmHg 87%
    05:00 0°C° 0.5 mm 4 mps 629 mmHg 86%
    06:00 -1°C° 0.5 mm 4 mps 629 mmHg 86%
    07:00 0°C° 0.5 mm 4 mps 629 mmHg 81%
    08:00 0°C° 0.5 mm 4 mps 630 mmHg 77%
    09:00 0°C° 0.5 mm 4 mps 630 mmHg 72%
    10:00 +1°C° 0.1 mm 4 mps 630 mmHg 66%
    11:00 +1°C° 0.1 mm 5 mps 630 mmHg 60%
    12:00 +2°C° 0.1 mm 5 mps 630 mmHg 54%
    13:00 +2°C° 0.1 mm 5 mps 630 mmHg 53%
    14:00 +3°C° 0.1 mm 4 mps 630 mmHg 51%
    15:00 +3°C° 0.1 mm 4 mps 630 mmHg 50%
    16:00 +2°C° 0 mm 3 mps 630 mmHg 54%
    17:00 0°C° 0 mm 3 mps 630 mmHg 59%
    18:00 -1°C° 0 mm 2 mps 630 mmHg 63%
    19:00 -1°C° 0 mm 2 mps 630 mmHg 63%
    20:00 -1°C° 0 mm 2 mps 630 mmHg 63%
    21:00 -1°C° 0 mm 2 mps 631 mmHg 63%
    22:00 -2°C° 0 mm 2 mps 631 mmHg 65%
    23:00 -2°C° 0 mm 2 mps 631 mmHg 66%

    24 November, Friday

    Time Temperature Precipitation Wind Pressure Humidity
    00:00 -2°C° 0 mm 2 mps 631 mmHg 68%
    01:00 -2°C° 0.1 mm 3 mps 631 mmHg 70%
    02:00 -2°C° 0.1 mm 3 mps 631 mmHg 72%
    03:00 -2°C° 0.1 mm 3 mps 631 mmHg 75%
    04:00 -2°C° 0.2 mm 3 mps 631 mmHg 76%
    05:00 -2°C° 0.2 mm 3 mps 631 mmHg 77%
    06:00 -2°C° 0.2 mm 3 mps 631 mmHg 78%
    07:00 -3°C° 0.3 mm 4 mps 632 mmHg 75%
    08:00 -3°C° 0.3 mm 4 mps 632 mmHg 73%
    09:00 -3°C° 0.3 mm 4 mps 632 mmHg 71%
    10:00 -3°C° 0.2 mm 4 mps 632 mmHg 67%
    11:00 -2°C° 0.2 mm 4 mps 632 mmHg 63%
    12:00 -2°C° 0.2 mm 4 mps 632 mmHg 59%
    13:00 -2°C° 0.1 mm 4 mps 632 mmHg 59%
    14:00 -2°C° 0.1 mm 4 mps 632 mmHg 59%
    15:00 -2°C° 0.1 mm 4 mps 632 mmHg 59%
    16:00 -2°C° 0.1 mm 3 mps 632 mmHg 64%
    17:00 -4°C° 0.1 mm 3 mps 632 mmHg 68%
    18:00 -5°C° 0.1 mm 3 mps 632 mmHg 73%
    19:00 -5°C° 0.4 mm 3 mps 632 mmHg 76%
    20:00 -5°C° 0.4 mm 3 mps 632 mmHg 78%
    21:00 -5°C° 0.4 mm 3 mps 633 mmHg 81%
    22:00 -5°C° 0.2 mm 3 mps 633 mmHg 82%
    23:00 -5°C° 0.2 mm 3 mps 633 mmHg 82%

    25 November, Saturday

    Time Temperature Precipitation Wind Pressure Humidity
    00:00 -5°C° 0.2 mm 3 mps 633 mmHg 83%
    01:00 -5°C° 0.1 mm 3 mps 633 mmHg 82%
    02:00 -5°C° 0.1 mm 3 mps 633 mmHg 82%
    03:00 -5°C° 0.1 mm 3 mps 633 mmHg 81%
    04:00 -5°C° 0.1 mm 3 mps 634 mmHg 81%
    05:00 -5°C° 0.1 mm 3 mps 634 mmHg 81%
    06:00 -6°C° 0.1 mm 3 mps 634 mmHg 81%
    07:00 -5°C° 0.1 mm 4 mps 635 mmHg 78%
    08:00 -5°C° 0.1 mm 4 mps 635 mmHg 75%
    09:00 -4°C° 0.1 mm 4 mps 636 mmHg 72%
    10:00 -4°C° 0.1 mm 4 mps 636 mmHg 69%
    11:00 -3°C° 0.1 mm 4 mps 636 mmHg 67%
    12:00 -3°C° 0.1 mm 4 mps 636 mmHg 65%
    13:00 -3°C° 0.3 mm 4 mps 636 mmHg 67%
    14:00 -4°C° 0.3 mm 4 mps 636 mmHg 68%
    15:00 -4°C° 0.3 mm 4 mps 636 mmHg 70%
    16:00 -5°C° 0.2 mm 4 mps 637 mmHg 72%
    17:00 -5°C° 0.2 mm 4 mps 637 mmHg 74%
    18:00 -7°C° 0.2 mm 4 mps 638 mmHg 77%
    19:00 -8°C° 0.1 mm 4 mps 638 mmHg 76%
    20:00 -7°C° 0.1 mm 3 mps 638 mmHg 76%
    21:00 -8°C° 0.1 mm 3 mps 639 mmHg 76%
    22:00 -8°C° 0 mm 3 mps 639 mmHg 73%
    23:00 -8°C° 0 mm 3 mps 639 mmHg 69%

    26 November, Sunday

    Time Temperature Precipitation Wind Pressure Humidity
    00:00 -7°C° 0 mm 2 mps 639 mmHg 66%
    01:00 -7°C° 0 mm 2 mps 639 mmHg 63%
    02:00 -7°C° 0 mm 2 mps 639 mmHg 60%
    03:00 -7°C° 0 mm 2 mps 639 mmHg 58%
    04:00 -7°C° 0 mm 2 mps 638 mmHg 58%
    05:00 -7°C° 0 mm 1 mps 638 mmHg 58%
    06:00 -7°C° 0 mm 1 mps 638 mmHg 58%
    07:00 -6°C° 0 mm 2 mps 638 mmHg 55%
    08:00 -5°C° 0 mm 2 mps 639 mmHg 52%
    09:00 -3°C° 0 mm 2 mps 639 mmHg 48%
    10:00 -2°C° 0 mm 2 mps 639 mmHg 47%
    11:00 -1°C° 0 mm 2 mps 639 mmHg 46%
    12:00 +1°C° 0 mm 2 mps 639 mmHg 46%
    13:00 0°C° 0 mm 3 mps 638 mmHg 50%
    14:00 0°C° 0 mm 3 mps 638 mmHg 54%
    15:00 -1°C° 0 mm 3 mps 638 mmHg 58%
    16:00 -2°C° 0 mm 2 mps 637 mmHg 64%
    17:00 -3°C° 0 mm 2 mps 637 mmHg 70%
    18:00 -4°C° 0 mm 2 mps 637 mmHg 76%
    19:00 -4°C° 0 mm 2 mps 637 mmHg 75%
    20:00 -2°C° 0 mm 1 mps 637 mmHg 73%
    21:00 -2°C° 0 mm 1 mps 637 mmHg 72%
    22:00 -2°C° 0 mm 1 mps 636 mmHg 71%
    23:00 -2°C° 0 mm 1 mps 636 mmHg 69%
    Show more